Location: Castifao
(42.5040°N, 9.1124°E)
Time: 03:28:38
(UTC+00:00)

ADEOS Rocket - Pass Details

Date: 23 January 2020
Orbit: 859 x 1306 km, 98.7° (Epoch: 17 February)

Event Time Altitude Azimuth Distance (km) Brightness Sun altitude
Rises 18:33:29 0° 13° (NNE) 3,814 5.9 -23.5°
Reaches altitude 10° 18:35:54 10° 14° (NNE) 2,916 5.3 -24.0°
Maximum altitude 18:42:36 90° 312° (NW) 1,165 3.3 -25.2°
Drops below altitude 10° 18:49:59 10° 196° (SSW) 3,198 5.9 -26.6°
Sets 18:52:44 0° 196° (SSW) 4,203 6.5 -27.1°
